Probability
100 100 100 97 6 0 0 0 0 0 0 0 0 0 0 0 0 13 16 0 0 29 87 100 100 100 100 100 100 100 100 100 100 100 100 100 100 100 100 100 97 97 97 97 97 97 97 97 97
100 100 87 32 0 0 0 0 0 0 0 0 0 0 0 0 10 0 3 0 0 42 90 100 100 100 100 100 100 100 97 97 97 97 97 97 97 97 94 97 94 97 97 97 97 97 97 94 94
100 100 61 0 0 0 0 0 0 0 0 0 0 0 0 0 0 3 10 0 0 35 90 100 100 100 100 100 100 100 97 97 97 97 97 94 94 94 84 84 81 87 90 97 97 97 97 90 94
100 77 16 0 0 0 0 0 0 0 0 0 0 0 0 0 3 13 6 0 6 35 84 100 100 100 100 100 100 100 100 97 97 97 94 90 84 87 77 74 81 84 81 84 97 97 97 94 90
74 29 0 0 0 0 0 0 0 0 0 0 0 0 0 39 42 13 10 3 6 35 71 100 100 100 100 100 100 100 100 100 97 97 84 84 74 71 71 58 71 71 68 74 74 90 94 94 90
55 0 0 0 0 0 0 0 0 0 0 0 0 0 6 61 61 29 19 13 10 16 61 94 100 100 100 100 100 100 100 100 94 94 90 81 71 68 68 48 42 52 58 65 81 84 87 74 84
45 10 0 0 0 0 0 0 0 0 0 0 0 0 3 55 81 65 48 39 19 19 45 71 97 100 100 100 100 97 97 100 97 94 97 90 68 61 45 42 32 29 29 35 48 58 55 71 77
35 3 0 0 0 0 0 0 0 3 3 3 0 0 6 68 87 71 61 74 52 42 35 55 81 84 94 100 100 97 100 100 100 100 97 90 77 58 39 32 23 10 13 19 26 32 42 52 61
6 0 0 0 0 3 0 0 0 0 0 6 26 29 52 81 77 77 71 65 68 55 42 45 55 81 81 74 97 100 100 100 100 100 97 94 84 65 61 35 23 10 13 10 10 23 32 39 42
3 3 6 16 10 6 3 0 0 0 3 6 29 48 65 74 65 55 52 32 45 61 52 45 58 65 74 81 81 100 100 100 100 94 87 90 68 52 16 26 32 19 6 6 6 19 16 0 0
0 6 10 3 6 0 0 0 3 3 0 3 13 35 39 32 26 23 23 19 32 29 42 45 52 68 55 90 94 100 100 100 94 77 74 97 65 45 16 32 45 26 16 3 13 10 0 0 3
6 3 0 0 0 0 0 0 0 0 0 6 10 16 19 16 16 16 16 10 10 19 29 23 26 55 71 84 97 97 100 100 97 90 81 90 87 55 19 32 10 19 16 3 3 6 0 0 0
10 0 0 0 0 0 0 0 0 3 3 3 3 6 6 6 6 6 6 6 6 6 3 10 23 35 55 81 94 90 100 100 94 100 94 81 90 58 19 16 19 6 6 10 3 0 0 0 0
6 0 0 0 0 0 0 0 0 0 3 3 6 3 3 3 3 3 3 6 6 6 6 10 13 23 39 55 81 87 84 94 87 97 90 61 84 65 35 19 23 6 6 6 3 0 0 0 0
0 0 0 0 0 0 0 0 0 0 0 0 0 3 3 3 3 3 3 3 3 3 3 3 3 10 16 29 52 74 94 90 84 87 84 68 74 68 52 32 26 23 6 0 3 0 0 0 0
0 0 0 0 0 0 0 0 0 0 0 0 0 0 0 0 0 0 3 3 3 3 3 3 3 3 6 16 26 42 58 77 84 84 81 48 58 48 74 71 61 32 23 16 10 3 0 0 0
0 0 0 0 0 0 0 0 0 0 0 0 0 0 0 0 0 0 0 0 3 3 0 3 3 0 0 3 10 23 39 52 71 81 84 71 52 48 77 87 84 48 35 19 3 6 0 0 0
0 0 0 0 0 0 0 0 0 0 0 0 0 0 0 0 0 0 0 3 3 3 3 0 0 0 0 0 3 23 32 48 48 48 55 55 65 61 84 94 74 55 65 42 13 3 6 0 0
0 0 0 0 0 0 0 0 0 0 0 0 0 0 0 0 0 0 0 0 0 0 0 0 0 0 0 3 3 0 16 29 39 39 39 48 58 68 81 71 68 74 74 55 19 13 3 6 0
0 0 0 0 0 0 0 0 0 0 0 0 0 0 0 0 0 0 0 0 0 0 0 0 0 0 0 3 0 0 3 16 29 39 45 45 52 58 48 68 68 71 71 65 35 39 26 10 0
0 0 0 0 0 0 0 0 0 0 0 0 0 0 0 0 0 0 0 0 0 0 0 0 0 0 0 0 0 0 0 16 19 32 32 39 42 39 52 48 48 61 58 65 58 55 48 26 0
0 0 0 0 0 0 0 0 0 0 0 0 0 0 0 0 0 0 0 0 0 0 0 0 0 0 0 0 0 0 3 3 19 19 23 26 45 48 48 45 52 55 55 65 55 32 39 42 32
0 0 0 0 0 0 0 0 0 0 0 0 0 0 0 0 0 0 0 0 0 0 0 0 0 0 0 0 3 6 6 10 23 16 19 29 42 52 52 48 55 52 58 48 35 32 29 32 35
0 0 0 0 0 0 0 0 0 0 0 0 0 0 0 0 0 0 0 0 0 0 0 0 0 0 0 3 6 6 6 13 19 26 32 39 48 45 39 48 52 42 45 52 39 29 26 29 29
0 0 0 0 0 0 0 0 0 0 0 0 0 0 0 0 0 0 0 0 0 0 0 0 0 0 0 3 6 10 10 10 13 16 23 29 32 32 35 39 48 52 45 35 35 35 19 19 19
0 0 0 0 0 0 0 0 0 0 0 0 0 0 0 0 0 0 0 0 0 0 0 0 0 0 0 3 6 10 13 13 10 16 16 23 29 29 26 35 42 32 35 16 29 23 19 10 13
0 0 0 0 0 0 0 0 0 0 0 0 0 0 0 0 0 0 0 0 0 0 0 0 0 0 3 3 3 6 10 10 6 10 13 19 23 26 23 35 32 29 26 19 16 19 13 3 6
0 0 0 0 0 0 0 0 0 0 0 0 0 0 0 0 0 0 0 0 0 0 0 0 0 0 0 3 6 6 6 6 6 6 6 6 6 16 19 19 23 19 19 23 23 19 6 3 6
0 0 0 0 0 0 0 0 0 0 0 0 0 0 0 0 0 0 0 0 0 0 0 0 0 0 0 0 0 3 3 6 6 10 13 6 10 10 10 6 10 10 6 10 13 13 10 0 3
0 0 0 0 0 0 0 0 0 0 0 0 0 0 0 0 0 0 0 0 0 0 0 0 0 0 0 0 0 0 0 0 6 6 3 3 3 0 0 0 0 0 0 0 3 3 3 3 3
Height
5932 5931 5932 5933 5934 5933 5933 5933 5932 5931 5930 5929 5929 5928 5928 5928 5928 5931 5928 5926 5926 5926 5926 5926 5926 5926 5925 5925 5924 5923 5922 5921 5920 5919 5918 5917 5916 5915 5914 5913 5913 5912 5912 5912 5912 5912 5912 5912 5913
5933 5933 5934 5934 5934 5934 5934 5933 5932 5931 5930 5930 5929 5928 5928 5927 5927 5927 5926 5926 5926 5926 5926 5926 5926 5926 5926 5925 5925 5924 5923 5922 5921 5920 5919 5918 5917 5916 5915 5914 5913 5913 5912 5912 5912 5912 5912 5912 5912
5934 5934 5935 5935 5934 5934 5934 5933 5932 5931 5931 5930 5929 5929 5928 5928 5927 5926 5926 5926 5926 5926 5926 5925 5925 5926 5925 5925 5925 5924 5924 5923 5922 5921 5920 5919 5918 5917 5916 5915 5914 5914 5913 5913 5912 5912 5912 5912 5912
5935 5936 5936 5935 5934 5935 5934 5934 5932 5932 5931 5930 5930 5929 5928 5928 5927 5926 5926 5926 5925 5925 5925 5925 5925 5925 5925 5925 5925 5924 5924 5923 5922 5922 5921 5920 5919 5918 5917 5916 5915 5914 5914 5913 5912 5912 5912 5912 5912
5936 5936 5936 5935 5935 5935 5934 5933 5933 5932 5931 5930 5930 5929 5928 5927 5926 5926 5925 5925 5925 5924 5924 5924 5924 5924 5924 5924 5924 5923 5923 5923 5922 5921 5921 5920 5919 5919 5918 5917 5916 5915 5914 5913 5913 5912 5912 5912 5912
5937 5936 5937 5936 5935 5934 5934 5933 5932 5932 5931 5930 5930 5929 5928 5927 5927 5926 5925 5925 5924 5924 5923 5923 5923 5923 5923 5923 5922 5922 5922 5922 5921 5921 5920 5920 5919 5919 5918 5917 5917 5916 5915 5914 5913 5913 5912 5912 5911
5936 5936 5936 5935 5935 5934 5934 5933 5932 5932 5931 5931 5930 5929 5928 5927 5926 5925 5925 5924 5923 5923 5922 5922 5922 5921 5921 5921 5921 5921 5920 5920 5920 5920 5919 5919 5919 5918 5918 5917 5917 5916 5915 5915 5914 5913 5912 5912 5911
5935 5936 5935 5934 5934 5934 5933 5932 5931 5931 5930 5930 5929 5928 5927 5927 5926 5925 5924 5923 5922 5921 5921 5920 5920 5920 5920 5919 5919 5919 5919 5919 5918 5918 5918 5918 5918 5917 5917 5917 5916 5916 5916 5915 5914 5914 5913 5912 5912
5933 5935 5933 5933 5933 5933 5931 5931 5930 5929 5928 5928 5927 5926 5926 5925 5924 5923 5922 5921 5921 5920 5919 5919 5918 5918 5917 5917 5917 5917 5917 5916 5916 5916 5916 5916 5916 5916 5916 5916 5916 5915 5915 5915 5914 5914 5913 5913 5912
5932 5932 5932 5931 5931 5930 5929 5928 5927 5926 5926 5925 5925 5924 5923 5922 5922 5921 5920 5919 5918 5917 5917 5916 5916 5915 5915 5914 5914 5914 5914 5914 5914 5914 5914 5914 5914 5914 5914 5914 5914 5914 5914 5914 5914 5913 5913 5913 5912
5930 5929 5929 5928 5927 5927 5926 5925 5924 5923 5922 5922 5921 5920 5919 5919 5918 5917 5916 5916 5915 5914 5913 5913 5912 5912 5912 5911 5911 5911 5911 5911 5911 5911 5911 5911 5911 5911 5911 5912 5912 5912 5912 5912 5912 5912 5912 5912 5912
5928 5927 5925 5924 5924 5923 5922 5921 5920 5919 5918 5917 5916 5915 5915 5914 5913 5912 5911 5911 5910 5909 5909 5908 5907 5907 5907 5906 5906 5906 5906 5906 5906 5907 5907 5908 5908 5908 5909 5909 5909 5910 5910 5910 5911 5911 5911 5911 5911
5925 5924 5922 5921 5920 5919 5918 5917 5916 5914 5913 5912 5911 5910 5909 5908 5907 5906 5906 5905 5904 5903 5903 5902 5902 5901 5900 5900 5900 5900 5901 5901 5901 5902 5902 5903 5903 5904 5905 5906 5906 5906 5907 5908 5908 5908 5909 5909 5910
5921 5920 5919 5918 5916 5914 5913 5912 5910 5908 5907 5906 5905 5904 5903 5902 5901 5900 5899 5898 5897 5897 5896 5895 5895 5894 5893 5893 5893 5893 5894 5894 5895 5895 5896 5897 5898 5899 5900 5901 5902 5903 5903 5904 5905 5905 5906 5907 5907
5917 5916 5915 5913 5911 5909 5908 5906 5904 5902 5900 5899 5898 5896 5895 5894 5893 5892 5891 5890 5890 5889 5888 5888 5887 5886 5886 5886 5886 5886 5886 5887 5887 5888 5890 5891 5892 5893 5895 5896 5897 5898 5899 5900 5901 5901 5902 5903 5904
5913 5911 5909 5907 5905 5903 5903 5900 5898 5895 5894 5892 5890 5888 5887 5885 5884 5883 5882 5881 5881 5880 5880 5879 5879 5879 5879 5878 5878 5878 5878 5879 5880 5881 5882 5884 5885 5887 5888 5890 5892 5893 5894 5896 5897 5897 5898 5899 5900
5908 5906 5903 5901 5899 5896 5894 5892 5890 5888 5886 5884 5881 5880 5878 5876 5874 5873 5872 5871 5871 5870 5870 5870 5870 5870 5870 5870 5870 5870 5870 5871 5872 5873 5874 5876 5878 5880 5882 5884 5886 5887 5889 5890 5891 5893 5894 5895 5896
5904 5901 5898 5895 5892 5890 5887 5884 5882 5880 5877 5875 5873 5871 5868 5867 5865 5863 5861 5860 5859 5859 5859 5858 5859 5859 5860 5860 5861 5862 5862 5864 5865 5866 5867 5869 5871 5872 5874 5876 5879 5880 5882 5884 5886 5887 5889 5890 5891
5898 5895 5892 5889 5886 5883 5880 5877 5875 5872 5869 5867 5864 5862 5859 5857 5855 5853 5851 5849 5848 5847 5847 5847 5847 5847 5848 5849 5850 5851 5852 5854 5856 5857 5858 5860 5863 5865 5867 5869 5871 5873 5875 5878 5880 5881 5883 5884 5886
5893 5890 5886 5883 5880 5877 5874 5871 5868 5865 5861 5858 5856 5853 5850 5847 5844 5842 5839 5838 5836 5835 5834 5834 5834 5835 5836 5837 5838 5839 5841 5844 5846 5848 5850 5852 5855 5857 5859 5862 5864 5866 5868 5871 5873 5875 5876 5878 5880
5888 5885 5881 5878 5874 5871 5868 5864 5861 5857 5854 5851 5847 5844 5841 5838 5835 5832 5829 5826 5824 5822 5821 5821 5821 5821 5822 5824 5825 5827 5830 5832 5835 5838 5840 5843 5846 5849 5852 5854 5856 5858 5861 5863 5865 5868 5870 5872 5873
5883 5880 5876 5872 5869 5865 5863 5858 5855 5851 5847 5843 5840 5836 5833 5830 5826 5822 5819 5816 5813 5810 5809 5808 5808 5808 5809 5810 5812 5815 5818 5821 5824 5827 5830 5834 5837 5841 5844 5846 5849 5851 5853 5856 5858 5860 5862 5864 5866
5879 5875 5871 5868 5864 5861 5857 5854 5850 5846 5841 5837 5833 5830 5826 5822 5818 5814 5811 5807 5804 5801 5799 5797 5796 5796 5796 5797 5799 5802 5805 5809 5812 5816 5820 5824 5828 5832 5835 5838 5841 5843 5845 5848 5850 5853 5854 5856 5858
5875 5871 5867 5863 5860 5857 5853 5850 5846 5841 5837 5833 5829 5825 5821 5817 5812 5808 5804 5800 5796 5793 5790 5788 5787 5786 5785 5786 5788 5790 5794 5798 5802 5806 5810 5814 5818 5822 5825 5829 5832 5834 5837 5840 5842 5844 5847 5849 5851
5871 5868 5864 5860 5857 5854 5850 5846 5843 5838 5834 5829 5825 5821 5817 5812 5808 5803 5799 5794 5790 5787 5784 5782 5781 5779 5778 5778 5779 5781 5784 5788 5792 5797 5801 5805 5808 5812 5816 5819 5823 5826 5828 5831 5833 5836 5838 5840 5843
5868 5865 5863 5859 5855 5851 5847 5844 5841 5836 5831 5827 5822 5818 5813 5809 5804 5800 5795 5790 5786 5783 5780 5778 5776 5775 5773 5772 5773 5774 5776 5780 5784 5789 5792 5796 5800 5804 5807 5810 5814 5816 5819 5822 5825 5827 5830 5832 5834
5866 5863 5860 5857 5853 5850 5846 5843 5839 5835 5830 5826 5821 5817 5812 5807 5802 5798 5793 5788 5784 5781 5778 5776 5774 5772 5770 5769 5769 5770 5771 5774 5777 5781 5785 5789 5792 5796 5799 5802 5805 5808 5810 5813 5816 5819 5822 5824 5826
5866 5862 5859 5855 5852 5849 5846 5843 5839 5834 5830 5826 5821 5817 5812 5807 5803 5798 5793 5789 5785 5782 5779 5776 5774 5771 5769 5768 5768 5768 5768 5770 5773 5776 5779 5783 5786 5789 5792 5794 5797 5800 5802 5804 5808 5810 5813 5815 5817
5866 5862 5858 5855 5852 5850 5847 5846 5840 5836 5831 5827 5823 5819 5814 5809 5805 5800 5795 5791 5787 5784 5781 5778 5775 5773 5771 5769 5768 5768 5768 5769 5771 5773 5776 5778 5780 5782 5785 5787 5789 5792 5794 5796 5799 5801 5804 5806 5808
5866 5862 5859 5857 5853 5850 5848 5848 5841 5837 5833 5829 5825 5821 5817 5812 5808 5803 5799 5795 5791 5788 5784 5781 5778 5775 5773 5772 5771 5770 5769 5770 5770 5771 5773 5774 5776 5777 5779 5781 5782 5784 5786 5788 5790 5793 5795 5797 5799
Wind_Speed
9 9 10 10 10 10 9 8 9 9 8 8 7 6 6 5 5 5 6 6 7 7 7 8 8 8 9 9 10 11 11 11 12 12 12 11 11 10 9 8 6 5 4 4 3 3 3 4 4
9 9 9 8 9 9 7 7 7 8 7 7 6 6 5 5 5 5 6 6 6 6 6 6 6 6 7 7 8 9 9 10 10 11 11 12 11 11 10 9 8 6 5 4 3 3 3 3 3
7 7 8 8 9 7 6 6 6 6 6 6 5 5 5 5 5 5 5 5 6 6 6 6 5 5 5 6 6 6 7 8 8 9 10 10 11 11 11 10 9 7 6 5 4 3 2 2 2
6 6 6 7 7 6 4 4 4 4 4 5 5 4 4 4 4 4 4 5 5 6 7 6 6 5 5 5 5 4 5 6 6 7 8 9 9 10 10 10 9 8 7 6 4 3 2 2 2
4 4 5 5 4 4 3 2 2 2 3 3 3 3 3 3 3 3 3 4 5 6 7 7 7 7 6 6 5 4 4 4 4 5 6 6 7 8 8 8 8 8 7 6 5 4 3 2 2
2 2 2 3 2 1 0 0 1 1 1 1 2 2 2 1 1 1 2 4 5 7 7 8 8 9 9 8 7 6 5 4 4 3 3 4 5 5 6 6 7 7 7 6 5 5 4 3 2
2 1 1 2 2 2 3 3 4 4 3 2 2 3 3 2 2 2 2 4 6 8 9 9 10 10 10 10 10 9 8 7 5 4 3 2 2 3 3 4 4 5 5 5 5 5 4 3 2
5 5 4 5 5 5 5 6 6 6 6 5 5 5 5 5 5 5 5 5 7 8 10 11 12 12 13 13 13 12 11 10 9 7 6 5 4 3 2 2 2 2 3 3 4 4 4 4 3
8 8 8 8 8 7 7 8 9 9 9 9 8 8 8 8 9 8 8 8 9 9 10 12 13 14 15 16 16 15 14 13 12 11 10 8 7 5 4 3 3 2 1 1 1 2 3 3 3
10 11 11 11 11 11 11 11 12 12 12 12 12 12 12 12 12 12 12 12 12 12 12 13 15 16 16 17 18 18 18 17 16 15 13 12 10 8 7 6 5 4 3 2 2 1 1 2 2
12 13 14 14 14 14 15 15 16 16 16 16 17 17 17 17 17 16 16 17 17 16 16 17 17 18 19 20 20 20 20 20 19 18 17 15 14 12 10 9 7 7 6 5 4 4 3 2 1
14 14 16 17 17 18 18 19 20 20 21 21 21 22 22 21 20 20 20 20 21 21 20 21 21 22 23 23 24 24 23 23 22 21 20 19 17 15 13 12 10 9 9 8 7 7 6 5 4
16 16 18 19 20 21 22 23 24 24 25 25 25 25 25 24 25 24 24 24 24 24 24 24 25 26 26 27 27 27 27 26 25 24 23 22 21 19 17 15 14 12 11 11 10 10 9 9 7
19 20 21 22 24 25 26 27 28 28 29 29 29 29 29 29 29 29 29 29 29 28 28 28 29 30 30 31 31 30 29 29 28 28 27 26 24 23 21 19 17 15 14 13 13 12 12 12 11
23 24 25 26 27 28 29 30 30 31 31 32 32 32 32 33 33 33 34 34 34 33 33 32 33 33 33 33 33 33 34 33 31 31 30 29 28 27 25 22 19 17 16 15 14 14 14 14 14
25 27 28 29 29 30 31 31 30 31 32 32 33 33 34 35 36 37 38 38 38 38 38 37 38 37 36 35 36 36 36 37 35 34 33 31 30 28 27 25 22 20 19 18 17 16 16 16 16
26 28 29 30 29 30 31 31 31 31 32 33 33 34 35 36 37 38 39 41 41 42 43 43 43 42 41 40 39 38 38 37 37 37 35 33 32 30 28 27 25 23 22 21 20 19 18 17 17
27 28 29 29 29 29 30 31 30 31 32 32 33 34 35 36 38 39 40 42 43 44 45 46 47 47 47 45 44 42 40 39 39 39 39 38 35 33 31 30 28 26 24 23 22 21 21 20 19
26 28 29 28 28 29 29 30 30 31 32 33 33 34 36 37 39 40 41 42 43 44 46 47 49 50 49 49 48 47 44 43 42 41 38 38 37 35 34 31 29 27 25 24 23 22 22 22 21
26 27 27 27 27 28 29 29 30 30 31 32 33 34 35 37 38 39 40 41 43 44 45 47 48 49 50 51 51 50 49 47 46 44 42 39 36 35 34 33 32 30 27 26 25 24 24 24 24
24 24 25 26 26 26 27 28 28 28 29 29 30 31 32 33 34 36 38 39 41 42 43 44 46 47 48 49 50 50 50 51 50 47 44 42 38 36 34 33 33 31 28 26 26 26 24 24 24
22 22 23 24 24 25 25 27 26 26 27 27 28 28 29 29 30 31 32 33 35 37 38 40 42 44 45 47 47 49 49 49 49 47 47 45 42 39 36 33 31 29 28 27 27 26 25 25 26
21 21 21 21 22 23 22 23 23 23 24 25 26 26 26 27 27 26 27 27 27 29 30 32 34 36 39 40 42 44 45 46 47 46 45 44 43 40 37 34 32 30 29 28 28 27 27 26 26
19 19 19 19 19 19 19 19 20 20 21 22 23 23 23 23 22 22 23 23 23 23 23 24 25 27 30 33 34 37 40 41 42 43 43 43 41 39 37 36 34 32 31 30 30 29 29 28 28
18 19 18 18 17 16 16 17 18 18 18 18 18 18 19 19 19 20 21 21 19 18 17 17 18 20 22 24 26 28 32 35 37 37 38 39 38 37 36 36 35 33 32 32 31 31 31 30 30
17 17 15 15 15 14 15 15 16 15 15 16 16 17 17 17 17 18 19 18 16 14 13 12 12 13 13 15 17 21 24 27 30 32 33 34 34 34 34 34 33 33 32 32 32 32 31 31 31
16 14 13 12 11 12 13 13 14 14 15 16 16 17 17 16 16 17 17 15 13 11 10 8 8 7 8 8 10 13 18 21 23 26 28 28 29 31 31 32 32 32 32 33 33 32 32 32 32
15 14 13 12 11 11 11 13 14 14 15 16 17 17 18 18 18 17 17 16 14 12 11 9 7 6 6 5 5 8 10 13 16 20 23 25 26 27 28 29 30 31 32 32 33 33 32 33 33
15 15 14 13 11 11 11 12 13 14 16 16 16 17 18 19 19 19 19 18 17 16 15 13 11 9 8 7 5 2 4 8 11 13 16 19 21 23 25 27 28 29 30 31 32 33 34 34 34
16 15 14 13 13 12 12 13 14 15 16 16 17 17 19 20 20 20 20 19 19 18 18 16 15 13 11 9 8 6 3 1 4 8 11 14 17 19 21 23 25 26 28 30 31 33 34 34 34
Wind_Direction
79 78 78 75 76 71 76 85 95 102 102 100 97 95 98 110 125 135 142 145 142 136 127 118 111 106 102 98 95 92 88 86 85 83 81 80 80 80 78 77 83 91 101 112 131 154 175 189 201
76 75 75 77 73 66 71 77 90 98 101 102 99 95 97 107 119 133 148 156 158 155 148 139 129 119 112 107 102 99 95 90 87 84 81 79 78 77 76 75 78 84 91 99 111 131 158 182 195
74 73 73 80 75 71 67 70 78 92 98 100 99 99 101 112 123 138 153 167 173 173 170 166 160 149 136 126 116 109 104 98 93 89 84 81 80 77 74 73 74 79 83 86 91 100 125 148 167
70 68 69 77 76 68 62 60 65 81 95 93 93 102 110 121 134 148 163 179 187 190 188 188 190 187 177 162 147 132 119 110 102 97 92 87 83 79 75 72 71 72 74 75 79 87 101 125 147
68 68 72 80 78 70 55 47 58 72 87 85 84 90 100 120 142 160 179 192 202 206 205 205 209 211 208 201 190 177 158 138 123 111 102 97 91 85 79 74 70 67 68 67 67 74 87 114 141
56 56 76 101 111 111 79 280 275 308 32 46 45 47 55 68 133 177 208 216 220 222 220 220 221 223 224 221 216 212 204 189 169 148 129 113 103 96 88 79 72 68 64 63 62 65 75 99 128
270 257 217 216 228 233 247 259 267 281 288 306 324 328 327 321 305 282 261 249 242 238 233 230 230 230 231 230 229 228 226 222 216 208 196 176 145 121 108 95 83 74 67 63 60 61 66 81 112
271 272 266 255 255 259 267 277 280 279 278 285 290 300 300 299 296 288 278 269 261 254 248 243 239 237 237 236 235 236 236 236 235 233 231 227 217 199 175 148 123 96 78 69 63 60 63 71 92
274 278 274 275 277 277 279 288 286 280 277 277 283 291 293 290 288 283 278 273 268 265 260 255 251 247 243 242 240 240 241 242 243 244 243 240 236 230 223 214 206 198 184 118 79 65 65 72 87
277 282 284 286 286 284 286 289 289 283 280 277 279 284 286 287 284 279 275 272 269 266 264 260 256 253 250 247 245 244 244 245 246 247 247 246 242 239 235 231 229 228 227 224 216 203 101 81 93
280 286 288 289 289 287 287 287 286 282 280 279 280 280 282 282 278 275 273 270 268 266 263 262 258 255 253 251 249 246 245 245 246 246 246 246 245 242 239 237 238 238 237 235 232 228 222 204 174
281 284 286 287 286 286 286 285 285 283 282 281 280 279 278 279 277 274 270 268 266 264 263 260 260 258 255 252 250 248 246 245 245 245 245 245 245 244 242 241 241 243 243 241 239 237 232 225 218
279 281 283 284 286 286 286 285 285 283 281 280 280 279 277 275 273 270 269 267 266 264 263 260 259 257 254 251 249 247 246 245 245 243 243 243 243 243 243 243 244 243 243 243 241 241 238 232 226
279 281 282 284 285 286 286 285 284 284 282 280 279 278 275 273 272 270 266 264 263 261 260 261 259 256 255 253 248 245 244 244 243 243 242 241 241 241 242 243 243 243 242 242 241 241 241 238 232
282 284 284 286 286 287 286 285 286 285 284 282 280 278 276 274 271 269 267 264 262 261 259 258 258 256 254 252 251 249 245 243 242 241 241 240 240 240 239 240 241 243 243 241 241 241 242 241 237
285 287 289 289 290 290 289 289 287 285 284 282 280 278 276 273 271 269 267 265 263 261 259 257 256 256 254 253 252 251 249 246 244 242 242 241 239 240 239 237 240 242 243 243 242 242 242 242 242
288 290 291 291 292 292 290 289 288 286 283 281 280 278 276 273 272 269 267 265 263 262 260 258 256 255 254 253 253 252 251 248 247 245 245 244 243 240 240 240 241 244 245 246 245 244 243 244 245
290 291 292 292 293 292 291 290 289 287 284 283 281 279 277 276 274 272 269 267 265 262 261 259 258 257 256 255 254 251 250 250 250 249 249 248 246 243 241 242 243 244 245 246 246 246 245 245 244
291 292 293 293 293 292 291 291 290 289 287 285 283 282 280 279 277 275 273 270 268 266 263 261 260 258 257 255 254 254 253 251 251 249 249 249 248 246 244 244 244 245 245 246 248 248 247 245 245
295 295 295 295 294 294 293 292 292 291 289 287 285 284 282 281 280 279 276 274 272 269 267 264 262 261 259 257 255 254 254 252 251 251 251 251 251 248 246 245 246 246 245 246 248 249 248 248 249
298 298 299 299 299 298 297 296 295 294 292 290 288 288 287 287 285 284 281 280 277 273 270 267 266 264 262 260 257 254 253 253 252 252 252 253 253 249 247 247 246 248 248 248 248 249 250 251 252
305 304 302 301 302 303 302 300 300 300 298 297 296 296 296 296 296 293 289 285 281 277 273 271 268 266 264 261 259 255 253 252 251 251 252 252 251 250 249 248 248 249 249 249 249 251 252 251 251
311 310 309 309 310 310 307 305 307 307 306 304 303 302 303 302 302 301 298 294 288 283 280 275 271 267 264 261 258 255 251 250 250 250 250 249 249 249 248 248 251 251 251 250 251 253 252 251 253
318 318 317 317 318 317 314 313 315 316 313 310 309 308 309 310 309 309 308 304 298 292 286 281 275 269 264 259 255 251 249 248 249 249 249 248 247 249 249 249 249 250 252 251 251 252 251 251 253
325 327 328 329 330 326 324 325 326 328 327 324 322 320 320 319 317 316 316 313 308 301 296 290 283 277 267 260 254 249 246 244 244 245 246 246 246 247 249 249 248 249 250 248 249 250 251 252 252
337 336 336 334 332 333 335 337 340 342 343 343 343 341 339 336 333 332 330 326 321 315 308 300 296 286 277 269 260 250 242 237 239 240 241 243 244 246 246 248 248 247 247 248 248 248 251 251 252
349 350 350 346 344 344 349 352 353 355 357 360 360 359 358 357 353 349 349 352 351 342 336 328 317 302 291 280 269 253 238 232 233 235 237 238 241 243 245 247 247 248 247 246 247 247 249 250 252
4 5 6 6 4 2 3 8 10 13 15 16 15 14 14 14 14 18 18 18 20 21 18 13 4 345 318 304 278 259 239 230 228 230 233 237 238 240 242 244 245 245 245 245 245 247 247 249 251
16 17 18 20 22 20 19 21 23 25 26 27 29 29 29 32 33 32 32 33 34 35 34 35 30 27 29 27 26 349 235 224 225 227 231 235 238 239 242 243 243 244 245 246 246 247 248 250 252
23 24 25 29 32 32 30 33 34 38 37 37 37 38 38 39 39 39 39 40 41 41 41 42 40 42 43 47 51 50 48 191 224 229 232 237 240 241 243 243 243 245 246 247 247 248 249 250 252